Location: Six Mile Lake
(44.9000°N, 79.7170°W)
Time: 12:13:27
(UTC-04:00)

O/OREOS (USA 219) - Pass Details

Date: 30 June 2022
Orbit: 621 x 646 km, 72.0° (Epoch: 22 May)

Event Time Altitude Azimuth Distance (km) Brightness Sun altitude
Rises 01:14:12 0° 342° (NNW) 2,962 ? -21.9°
Reaches altitude 10° 01:16:38 10° 351° (N) 2,051 ? -21.9°
Maximum altitude 01:20:54 36° 58° (ENE) 1,033 ? -21.9°
Enters shadow 01:23:01 23° 107° (ESE) 1,357 ? -21.9°
